DW7879 Weather Reports


time (UTC)temp
F
wind
direction
speed
knots
gust
knots
rain 1hr
in
rain 24hr
in
rain mn
in
humidity
%
barometer
mb
20260906104511 73 251 0.0 0.0 0.00 0.00 0.00 97 1010.1
20260906103011 73 251 0.0 0.0 0.00 0.00 0.00 97 1010.2
20260906101510 73 251 0.0 0.9 0.00 0.00 0.00 97 1010.1
20260906100010 73 251 0.0 0.0 0.00 0.00 0.00 97 1010.0
20260906094509 73 259 0.0 0.9 0.00 0.00 0.00 97 1009.9
20260906093028 73 278 0.0 0.9 0.00 0.00 0.00 97 1010.0
20260906091509 73 278 0.0 0.0 0.00 0.00 0.00 96 1010.0
20260906090013 73 278 0.0 0.0 0.00 0.00 0.00 97 1010.0
20260906084510 73 273 0.0 0.0 0.00 0.00 0.00 96 1009.7
20260906083010 73 272 0.0 0.0 0.00 0.00 0.00 96 1010.0
20260906081504 73 273 0.0 0.0 0.00 0.00 0.00 96 1009.9
20260906080003 74 273 0.0 0.0 0.00 0.00 0.00 96 1009.9
20260906074504 74 300 0.0 2.6 0.00 0.00 0.00 96 1010.1
20260906073101 74 284 0.0 3.5 0.00 0.00 0.00 96 1010.3
20260906071558 74 265 0.0 0.0 0.00 0.00 0.00 96 1010.0
20260906070058 74 265 0.0 0.0 0.00 0.00 0.00 96 1009.7
20260906064556 74 265 0.0 0.9 0.00 0.00 0.00 96 1009.7
20260906063057 74 275 0.0 0.0 0.00 0.00 0.00 96 1009.5
20260906061602 75 275 0.0 0.0 0.00 0.00 0.00 95 1009.7
20260906060052 75 264 0.0 0.0 0.00 0.00 0.00 95 1009.9
20260906054551 75 264 0.0 0.0 0.00 0.00 0.00 95 1010.0
20260906053104 75 264 0.0 0.0 0.00 0.00 0.00 95 1010.3
20260906051548 75 300 0.0 0.0 0.00 0.00 0.00 95 1010.3
20260906050046 75 300 0.0 0.0 0.00 0.00 0.00 94 1010.4
20260906044543 75 300 0.0 0.0 0.00 0.00 0.00 94 1010.6
20260906043041 75 300 0.0 1.7 0.00 0.00 0.00 94 1010.7
20260906041551 75 304 0.0 0.0 0.00 0.00 0.00 95 1010.9
20260906040037 75 304 0.0 0.0 0.00 0.00 0.00 94 1010.8
20260906034543 76 303 0.0 0.0 0.00 0.00 0.00 94 1010.9
20260906033044 76 303 0.0 0.0 0.00 0.00 0.00 94 1010.6
20260906031540 76 302 0.0 0.0 0.00 0.00 0.00 94 1010.7
20260906030041 76 302 0.0 0.0 0.00 0.00 0.00 93 1010.4
20260906024534 76 303 0.0 0.0 0.00 0.00 0.00 92 1010.3
20260906023034 77 302 0.0 0.0 0.00 0.00 0.00 92 1010.0
20260906021534 77 302 0.0 0.0 0.00 0.00 0.00 92 1009.7
20260906020033 77 303 0.0 0.0 0.00 0.00 0.00 91 1009.7
20260906014543 78 302 0.0 0.0 0.00 0.00 0.00 90 1009.8
20260906013032 78 302 0.0 0.0 0.00 0.00 0.00 89 1009.7
20260906011537 79 302 0.0 0.0 0.00 0.00 0.00 88 1009.6
20260906010056 79 303 0.0 0.0 0.00 0.00 0.00 88 1009.4
20260906004531 79 304 0.0 0.0 0.00 0.00 0.00 87 1009.6
20260906003030 80 315 0.0 0.0 0.00 0.00 0.00 85 1009.6
20260906001546 80 316 0.0 0.0 0.00 0.00 0.00 83 1009.6
20260906000028 81 315 0.0 0.9 0.00 0.00 0.00 82 1009.5
20260905234528 82 78 0.0 0.0 0.00 0.00 0.00 80 1009.4
20260905233027 84 78 0.0 0.0 0.00 0.00 0.00 78 1009.4
20260905231539 86 78 0.0 0.0 0.00 0.00 0.00 75 1009.5
20260905230030 85 78 0.0 0.0 0.00 0.00 0.00 77 1009.2
20260905224539 83 333 0.0 0.9 0.00 0.00 0.00 79 1009.2
20260905223035 84 190 0.0 0.9 0.00 0.00 0.00 78 1009.4
20260905221524 83 294 0.0 0.9 0.00 0.00 0.00 79 1009.4
20260905220026 84 172 0.0 0.0 0.00 0.00 0.00 79 1009.4
20260905214521 82 210 0.0 0.0 0.00 0.00 0.00 81 1009.7
20260905213021 81 241 0.0 0.0 0.00 0.00 0.00 82 1009.8
20260905211535 81 241 0.0 1.7 0.00 0.00 0.00 81 1010.0
20260905210020 81 290 0.0 1.7 0.00 0.00 0.00 81 1009.9
20260905204524 82 263 0.0 0.0 0.00 0.00 0.00 82 1009.7
20260905203029 82 261 0.0 0.9 0.00 0.00 0.00 80 1010.1
20260905201525 83 284 0.0 0.9 0.00 0.00 0.00 80 1010.5
20260905200014 83 272 0.0 0.9 0.00 0.00 0.00 80 1010.4
20260905194512 83 122 0.0 0.0 0.00 0.00 0.00 79 1010.5
20260905193020 83 134 0.0 1.7 0.00 0.00 0.00 77 1010.6
20260905191523 83 256 0.0 0.9 0.00 0.00 0.00 78 1010.8
20260905190011 84 292 0.0 0.0 0.00 0.00 0.00 77 1010.7
20260905184510 85 293 0.0 0.9 0.00 0.00 0.00 75 1011.0
20260905183009 87 103 0.0 1.7 0.00 0.00 0.00 70 1011.0
20260905181510 90 326 0.0 4.3 0.00 0.00 0.00 69 1010.8
20260905180009 94 110 0.0 5.2 0.00 0.00 0.00 65 1011.1
20260905174506 96 270 0.0 6.1 0.00 0.00 0.00 58 1010.9
20260905173002 93 160 0.9 2.6 0.00 0.00 0.00 62 1010.8
20260905171602 92 60 1.7 5.2 0.00 0.00 0.00 64 1010.9
20260905170106 92 110 0.9 3.5 0.00 0.00 0.00 65 1011.0
20260905164602 92 103 0.0 1.7 0.00 0.00 0.00 69 1011.6
20260905163048 89 96 0.0 3.5 0.00 0.00 0.00 72 1011.7
20260905161545 88 117 0.0 3.5 0.00 0.00 0.00 74 1011.8
20260905160044 88 123 1.7 3.5 0.00 0.00 0.00 74 1011.8
20260905154543 88 114 1.7 5.2 0.00 0.00 0.00 74 1011.7
20260905153039 87 126 0.9 7.0 0.00 0.00 0.00 76 1011.9
20260905151539 87 90 2.6 6.1 0.00 0.00 0.00 75 1012.0
20260905150036 86 106 0.9 5.2 0.00 0.00 0.00 77 1012.3
20260905144536 85 110 0.0 3.5 0.00 0.00 0.00 79 1012.2
20260905143031 83 80 0.0 0.9 0.00 0.00 0.00 81 1012.3
20260905141530 84 103 0.0 1.7 0.00 0.00 0.00 79 1012.4
20260905140028 83 132 0.0 1.7 0.00 0.00 0.00 82 1012.3
20260905134529 83 85 0.0 0.0 0.00 0.00 0.00 85 1012.5
20260905133023 82 117 0.0 0.9 0.00 0.00 0.00 85 1012.7
20260905131521 80 138 0.0 1.7 0.00 0.00 0.00 87 1012.8
20260905130031 81 128 0.0 2.6 0.00 0.00 0.00 87 1012.8
20260905124517 80 111 0.0 1.7 0.00 0.00 0.00 89 1012.7
20260905123015 80 225 0.0 0.0 0.00 0.00 0.00 91 1012.8
20260905121512 78 263 0.0 0.0 0.00 0.00 0.00 95 1012.8
20260905120011 76 263 0.0 0.0 0.00 0.00 0.00 97 1012.6
20260905114509 75 263 0.0 0.0 0.00 0.00 0.00 97 1012.3
20260905113006 74 263 0.0 0.0 0.00 0.00 0.00 97 1011.9
20260905111506 74 263 0.0 0.0 0.00 0.00 0.00 97 1012.0
20260905110005 74 263 0.0 0.0 0.00 0.00 0.00 97 1011.9